Regional Weather Roundup
Issued by NWS

Home | Current Version | Previous Version | Graphics & Text | Print | Product List | Glossary On
Versions: 1 2 3 4 5 6 7 8 9 10 11 12 13 14 15 16 17 18 19 20 21 22 23 24 25 26 27 28 29 30 31 32 33 34 35 36 37 38 39 40 41 42 43 44 45 46 47 48 49 50
000
ASUS43 KMKX 180921
RWRWI

WISCONSIN REGIONAL WEATHER ROUNDUP
NATIONAL WEATHER SERVICE MILWAUKEE/SULLIVAN WI
400 AM CDT WED OCT 18 2017

NOTE: "FAIR" INDICATES FEW OR NO CLOUDS BELOW 12,000 FEET WITH NO
SIGNIFICANT WEATHER AND/OR OBSTRUCTIONS TO VISIBILITY.

WIZ001-002-006>008-014>016-023>028-181000-
NORTHWEST WISCONSIN

CITY           SKY/WX    TMP DP  RH WIND       PRES   REMARKS
SUPERIOR ARPT  CLEAR     52  43  71 SW7       29.79F
ASHLAND        CLEAR     54  44  69 SW10      29.83S
HAYWARD        CLEAR     52  43  71 S6        29.87S
SIREN          CLEAR     54  43  65 S7        29.85S
CUMBERLAND     CLEAR     46  41  81 S6        29.88F
RICE LAKE      CLEAR     47  43  85 E3        29.90F
CHETEK         CLEAR     49  44  81 CALM      29.90S
LADYSMITH      CLEAR     50  44  78 SE6       29.92F
EAU CLAIRE     CLEAR     50  43  77 S9        29.91F
MENOMONIE      CLEAR     49  43  79 SE5       29.91F
NEW RICHMOND   CLEAR     50  42  74 S7        29.87F
OSCEOLA        CLEAR     52  44  75 SE3       29.88F
$$

WIZ003>005-009-010-017-018-181000-
NORTH CENTRAL WISCONSIN

CITY           SKY/WX    TMP DP  RH WIND       PRES   REMARKS
MANITOWISH WTR CLEAR     44  44 100 S3        29.91S
ARBOR VITAE    CLEAR     52  46  80 S6        29.92F
WOODRUFF       CLEAR     52  46  80 S6        29.92F
RHINELANDER    CLEAR     51  44  77 SW9       29.95S
EAGLE RIVER    CLEAR     49  41  74 SW3       29.93S
LAND O LAKES   CLEAR     46  43  87 CALM      29.94S
PHILLIPS       CLEAR     50  44  79 S7        29.92S
TOMAHAWK       CLEAR     42  41  93 CALM      29.95S
MEDFORD        CLEAR     51  43  73 S9        29.94S
MERRILL        CLEAR     50  44  79 SW3       29.96F
$$

WIZ029-030-035-036-043>047-181000-
CENTRAL WISCONSIN

CITY           SKY/WX    TMP DP  RH WIND       PRES   REMARKS
WAUSAU         CLEAR     50  43  77 S3        29.96S
MOSINEE        CLEAR     45  43  93 S7        29.98F
MARSHFIELD     CLEAR     48  42  80 S8        29.96F
STEVENS POINT  CLEAR     48  42  80 S8        29.99S
WAUPACA        CLEAR     50  44  80 S6        30.01S
WAUTOMA        CLEAR     40  39  97 S3        30.02F
WISC RAPIDS    CLEAR     50  44  80 S6        29.99F
CAMP DOUGLAS   CLEAR     53  43  70 S7        29.99F
$$

WIZ011>013-019>022-031-037>040-048>050-181000-
NORTHEAST WISCONSIN

CITY           SKY/WX    TMP DP  RH WIND       PRES   REMARKS
ANTIGO         CLEAR     46  42  87 SW6       29.97F
SHAWANO        CLEAR     52  44  76 CALM      29.99S
OCONTO         CLEAR     52  44  74 SW5       29.99S
STURGEON BAY   CLEAR     54  44  69 S9        30.01S
GREEN BAY      CLEAR     53  46  77 S8        30.00F
MANITOWOC      CLEAR     55  42  61 SW8       30.04S
APPLETON       CLEAR     52  39  62 SW12      30.00S
CLINTONVILLE   CLEAR     50  43  76 S3        29.99F
OSHKOSH        CLEAR     51  43  74 S12       30.02F
$$

WIZ032>034-041-042-053>061-181000-
SOUTHWEST WISCONSIN

CITY           SKY/WX    TMP DP  RH WIND       PRES   REMARKS
LA CROSSE      CLEAR     57  46  66 S13       29.96F
SPARTA         CLEAR     52  44  74 SW3       29.98F
VIROQUA        CLEAR     51  44  76 S6        30.00F
BOSCOBEL       FOG       42  40  92 CALM      30.03S VSB 1
PRAIRIE DU CHI CLEAR     55  42  61 CALM      30.01F
PLATTEVILLE    CLEAR     49  45  85 S8        30.05F
$$

WIZ056-057-062-063-064-067-068-181000-
SOUTH CENTRAL WISCONSIN

CITY           SKY/WX    TMP DP  RH WIND       PRES   REMARKS
REEDSBURG      CLEAR     52  43  71 S6        30.02F
BARABOO/DELLS  CLEAR     52  41  66 S9        30.03F
LONE ROCK      CLEAR     46  42  86 NE3       30.04F
MINERAL POINT  CLEAR     50  45  81 S7        30.05F
MADISON        CLEAR     52  43  71 SW6       30.06F
MIDDLETON      CLEAR     52  42  69 SW10      30.06F
WATERTOWN      CLEAR     49  44  80 S7        30.07F
MONROE         CLEAR     46  41  81 S10       30.07F
JANESVILLE     CLEAR     50  41  71 S5        30.09F
$$

WIZ051-052-058>065-066-070>072-181000-
SOUTHEAST WISCONSIN

CITY           SKY/WX    TMP DP  RH WIND       PRES   REMARKS
MILWAUKEE      CLEAR     52  42  69 SW8       30.10S
WAUKESHA       CLEAR     50  37  62 SW7       30.10S
MILWAUKEE/TIMM CLEAR     52  37  58 SW8       30.09F
RACINE         CLEAR     51  42  71 SW10      30.12S
BURLINGTON     CLEAR     47  42  82 S7        30.11S
KENOSHA        CLEAR     49  41  74 S8        30.12S
FOND DU LAC    CLEAR     54  40  59 SW8G17    30.04F
SHEBOYGAN      CLEAR     51  44  77 SW9       30.05F
WEST BEND      CLEAR     54  39  58 SW7       30.07S
JUNEAU         CLEAR     49  42  76 S7        30.07F
$$

LSZ147-162-181000-
LAKE SUPERIOR

STATION/POSITION TIME  TEMP    WIND        PRES    WAVE
                       AIR SEA DIR/SP/G            HT/PER
                 (UTC) (F)     (DEG/KT/KT) (MB)    (FT/S)
W MID LAKE BUOY  0850   56 53              1008.8S   2/ 4
DEVILS ISLAND    0900   57     200/  4/  4 1009.0F
PORT WING        0840          180/ 13/ 19 1009.1S
SAXON HARBOR     0830   62     200/  8/ 17 1009.5F
$$

LMZ867-665-643>646-181000-
LAKE MICHIGAN

STATION/POSITION TIME  TEMP    WIND        PRES    WAVE
                       AIR SEA DIR/SP/G            HT/PER
                 (UTC) (F)     (DEG/KT/KT) (MB)    (FT/S)
S GREEN BAY BUOY 0900   58 58  210/ 17/ 19 1015.3
N MID LAKE BUOY  0850   60 59  210/ 16/ 21 1015.8F   4/ 5
NORTHPORT PIER   0840   59     190/  3/  9 1015.2F
KEWAUNEE LAKESHO 0854   55     200/  8/  9 1015.6F
SHEBOYGAN LAKESH 0900   55     190/  9/ 10 1017.4F
PORT WASHINGTON  0830   54     190/  4/  7 1019.3S
MILWAUKEE LAKESH 0900   54     210/  9/ 10   N/A
S MID LAKE BUOY  0850   60 61  240/ 19/ 23 1020.2F   3/ 5
KENOSHA   LAKESH 0900   53     210/  7/ 12 1019.6
$$

TC  - TEMPERATURE IN CELSIUS
VSB - VISIBILITY IN STATUTE MILES
WCI - WIND CHILL INDEX
HX  - HEAT INDEX




USA.gov is the U.S. government's official web portal to all federal, state and local government web resources and services.